TimeCST,TemperatureF,Dew PointF,Humidity,Sea Level PressureIn,VisibilityMPH,Wind Direction,Wind SpeedMPH,Gust SpeedMPH,PrecipitationIn,Events,Conditions,WindDirDegrees,DateUTC
12:35 AM,32.0,30.2,93,29.76,7.0,NNW,12.7,-,N/A,,Overcast,340,2013-02-28 06:35:00
12:55 AM,31.8,30.2,94,29.76,7.0,NNW,11.5,-,N/A,Rain,Freezing Rain,330,2013-02-28 06:55:00
1:15 AM,31.8,30.2,94,29.78,5.0,NNW,11.5,-,N/A,Rain,Freezing Rain,340,2013-02-28 07:15:00
1:35 AM,32.0,30.2,93,29.78,10.0,NNW,11.5,-,N/A,,Overcast,340,2013-02-28 07:35:00
1:55 AM,32.0,30.2,93,29.78,10.0,NNW,12.7,-,N/A,,Overcast,340,2013-02-28 07:55:00
2:15 AM,32.2,30.2,92,29.78,10.0,NNW,12.7,-,N/A,,Overcast,340,2013-02-28 08:15:00
2:35 AM,32.2,30.2,92,29.79,10.0,NNW,15.0,-,N/A,Rain,Light Rain,340,2013-02-28 08:35:00
2:55 AM,32.2,30.2,92,29.79,10.0,NNW,13.8,-,N/A,,Overcast,340,2013-02-28 08:55:00
3:15 AM,32.0,30.0,92,29.80,10.0,NNW,13.8,-,N/A,,Light Drizzle,340,2013-02-28 09:15:00
3:35 AM,32.0,30.2,93,29.80,10.0,NNW,13.8,-,N/A,,Overcast,340,2013-02-28 09:35:00
3:55 AM,32.0,30.6,94,29.81,7.0,NNW,12.7,-,N/A,Rain,Light Rain,330,2013-02-28 09:55:00
4:15 AM,31.8,30.9,96,29.81,5.0,NNW,11.5,17.3,N/A,Rain,Freezing Rain,330,2013-02-28 10:15:00
4:35 AM,31.8,30.9,96,29.83,5.0,NNW,11.5,-,N/A,Rain,Freezing Rain,330,2013-02-28 10:35:00
4:55 AM,31.8,31.1,97,29.84,3.0,NNW,10.4,-,N/A,Rain,Freezing Rain,330,2013-02-28 10:55:00
5:15 AM,32.0,31.1,96,29.84,5.0,NNW,10.4,-,N/A,Snow,Light Snow,340,2013-02-28 11:15:00
5:55 AM,32.0,30.2,93,29.85,7.0,NNW,12.7,-,N/A,Snow,Light Snow,340,2013-02-28 11:55:00
6:15 AM,32.0,30.2,93,29.86,7.0,NNW,10.4,-,N/A,Rain,Light Rain,340,2013-02-28 12:15:00
6:35 AM,32.0,30.2,93,29.86,10.0,North,11.5,-,N/A,Rain,Light Rain,350,2013-02-28 12:35:00
6:55 AM,32.0,29.8,92,29.87,10.0,North,15.0,-,N/A,,Overcast,360,2013-02-28 12:55:00
7:15 AM,32.0,29.3,90,29.88,10.0,North,13.8,-,N/A,,Overcast,350,2013-02-28 13:15:00
7:35 AM,32.0,29.5,90,29.89,10.0,North,12.7,17.3,N/A,,Overcast,350,2013-02-28 13:35:00
7:55 AM,32.0,29.3,90,29.90,10.0,North,11.5,-,N/A,,Overcast,350,2013-02-28 13:55:00
8:15 AM,32.0,29.3,90,29.91,10.0,NNW,10.4,-,N/A,,Overcast,340,2013-02-28 14:15:00
8:35 AM,32.0,29.1,89,29.91,10.0,NNW,13.8,-,N/A,,Overcast,340,2013-02-28 14:35:00
8:55 AM,32.2,29.1,88,29.92,10.0,North,12.7,-,N/A,,Overcast,350,2013-02-28 14:55:00
9:15 AM,32.7,29.3,87,29.92,10.0,NNW,12.7,-,N/A,,Overcast,340,2013-02-28 15:15:00
9:35 AM,32.7,29.3,87,29.93,10.0,North,11.5,-,N/A,,Overcast,350,2013-02-28 15:35:00
9:55 AM,32.9,29.3,87,29.94,10.0,North,13.8,-,N/A,,Overcast,350,2013-02-28 15:55:00
10:15 AM,32.9,29.3,87,29.94,10.0,North,13.8,-,N/A,,Overcast,360,2013-02-28 16:15:00
10:35 AM,33.1,29.3,86,29.95,10.0,North,12.7,-,N/A,,Overcast,350,2013-02-28 16:35:00
10:55 AM,33.3,29.3,85,29.95,10.0,North,13.8,-,N/A,,Overcast,350,2013-02-28 16:55:00
11:15 AM,33.4,29.7,86,29.96,10.0,North,13.8,-,N/A,,Overcast,350,2013-02-28 17:15:00
11:35 AM,33.8,29.8,85,29.96,10.0,North,12.7,-,N/A,,Overcast,360,2013-02-28 17:35:00
11:55 AM,33.4,29.7,86,29.96,10.0,North,15.0,-,N/A,,Overcast,350,2013-02-28 17:55:00
12:35 PM,33.4,29.8,87,29.96,10.0,North,16.1,-,N/A,,Overcast,350,2013-02-28 18:35:00
12:55 PM,33.6,29.8,86,29.96,10.0,North,15.0,-,N/A,,Overcast,350,2013-02-28 18:55:00
1:15 PM,33.3,29.8,87,29.97,10.0,North,12.7,-,N/A,,Overcast,350,2013-02-28 19:15:00
1:35 PM,33.8,29.3,84,29.97,10.0,North,12.7,-,N/A,,Overcast,350,2013-02-28 19:35:00
1:55 PM,33.8,28.4,81,29.98,10.0,North,12.7,-,N/A,,Overcast,10,2013-02-28 19:55:00
2:15 PM,34.0,27.5,77,29.98,10.0,North,13.8,-,N/A,,Overcast,360,2013-02-28 20:15:00
2:35 PM,33.4,29.1,84,29.99,10.0,North,16.1,-,N/A,,Overcast,350,2013-02-28 20:35:00
2:55 PM,32.5,30.0,90,30.00,10.0,North,11.5,-,N/A,,Overcast,350,2013-02-28 20:55:00
3:15 PM,32.0,30.2,93,30.00,4.0,North,13.8,-,N/A,,Overcast,350,2013-02-28 21:15:00
3:35 PM,32.2,29.3,89,30.01,10.0,North,11.5,-,N/A,,Overcast,360,2013-02-28 21:35:00
3:55 PM,33.1,26.6,77,30.01,10.0,North,12.7,-,N/A,,Overcast,10,2013-02-28 21:55:00
4:15 PM,32.9,26.4,77,30.01,10.0,North,12.7,19.6,N/A,,Overcast,10,2013-02-28 22:15:00
4:35 PM,32.5,26.8,79,30.02,10.0,North,11.5,-,N/A,,Overcast,10,2013-02-28 22:35:00
4:55 PM,32.2,26.6,80,30.02,10.0,North,11.5,-,N/A,,Overcast,360,2013-02-28 22:55:00
5:15 PM,32.0,26.6,80,30.04,10.0,North,5.8,-,N/A,,Overcast,360,2013-02-28 23:15:00
5:35 PM,32.0,26.2,79,30.04,10.0,North,8.1,-,N/A,,Overcast,10,2013-02-28 23:35:00
5:55 PM,32.0,26.1,79,30.04,10.0,NNE,6.9,-,N/A,,Overcast,20,2013-02-28 23:55:00
6:15 PM,32.0,26.6,80,30.05,10.0,North,9.2,-,N/A,,Overcast,10,2013-03-01 00:15:00
6:35 PM,32.0,26.8,81,30.06,10.0,North,8.1,-,N/A,,Overcast,10,2013-03-01 00:35:00
7:15 PM,31.6,26.4,81,30.06,10.0,NNE,12.7,-,N/A,,Overcast,20,2013-03-01 01:15:00
7:35 PM,31.1,26.4,83,30.06,10.0,NNE,10.4,-,N/A,,Overcast,20,2013-03-01 01:35:00
7:55 PM,30.7,26.4,84,30.06,10.0,NNE,13.8,-,N/A,,Overcast,20,2013-03-01 01:55:00
8:15 PM,30.2,26.2,85,30.06,10.0,NNE,15.0,-,N/A,,Overcast,20,2013-03-01 02:15:00
8:35 PM,30.2,24.4,79,30.06,10.0,NNE,13.8,20.7,N/A,,Overcast,20,2013-03-01 02:35:00
8:55 PM,29.8,23.5,77,30.06,10.0,NNE,12.7,-,N/A,,Overcast,20,2013-03-01 02:55:00
9:15 PM,29.7,23.4,77,30.07,10.0,NNE,12.7,-,N/A,,Overcast,20,2013-03-01 03:15:00
9:35 PM,29.3,23.0,77,30.08,10.0,NNE,13.8,-,N/A,,Overcast,30,2013-03-01 03:35:00
9:55 PM,29.1,23.0,78,30.08,10.0,NNE,11.5,-,N/A,,Overcast,30,2013-03-01 03:55:00
10:15 PM,28.8,23.4,80,30.08,10.0,NNE,12.7,-,N/A,,Freezing Rain,30,2013-03-01 04:15:00
10:35 PM,28.2,23.0,81,30.09,10.0,NNE,11.5,-,N/A,,Freezing Rain,30,2013-03-01 04:35:00
10:55 PM,27.9,23.0,82,30.09,10.0,NNE,12.7,-,N/A,,Overcast,30,2013-03-01 04:55:00
11:15 PM,27.5,22.6,82,30.09,10.0,NE,8.1,-,N/A,,Overcast,40,2013-03-01 05:15:00
11:35 PM,27.1,22.5,83,30.09,10.0,NNE,12.7,-,N/A,,Overcast,30,2013-03-01 05:35:00
11:55 PM,26.6,22.1,83,30.09,10.0,North,8.1,-,N/A,,Overcast,10,2013-03-01 05:55:00